{"data":{"norad_id":65860,"epoch":"2026-05-25T03:39:03.244032Z","epoch_age_seconds":61838,"freshness":"FRESH","line1":"1 65860U 25223G   26145.15212088  .00023178  00000+0  69503-3 0  9990","line2":"2 65860  53.1607 298.9288 0001163  65.8929 294.2195 15.34399050 35914","mean_motion":15.3439905,"eccentricity":0.0001163,"inclination_deg":53.1607,"raan_deg":298.9288,"arg_perigee_deg":65.8929,"mean_anomaly_deg":294.2195,"bstar":0.00069503,"rev_number":3591,"period_min":93.847816185757,"perigee_km":461.91047376044,"apogee_km":463.50165385709,"semimajor_km":6840.8430638088,"source":"CELESTRAK","updated_at":"2026-05-25T13:38:20.971826Z"}}